Tracking 28514 objects as of 24-Feb-2024
HD Live streaming from Space Station
objects crossing your sky now

STARLINK-5041

Track STARLINK-5041 now!
10-day predictions
STARLINK-5041 is classified as:


NORAD ID: 53891
Int'l Code: 2022-119F
Perigee: 545.3 km
Apogee: 548.4 km
Inclination: 53.2 °
Period: 95.4 minutes
Semi major axis: 6917 km
RCS: Unknown
Launch date: September 24, 2022
Source: United States (US)
Launch site: AIR FORCE EASTERN TEST RANGE (AFETR)
Your satellite tracking list
Your tracking list is empty




NASA's NSSDC Master Catalog

Two Line Element Set (TLE):
1 53891U 22119F   24054.35703105 -.00000113  00000-0  11009-4 0  9991
2 53891  53.2183  70.1203 0002245 102.0510 258.0733 15.08846935 79165
Source of the keplerian elements: AFSPC